[[{"header":{"parameterUnit":"m.s-1","parameterCategory":1,"la1":30.2991,"la2":30.254,"lo1":-89.0895,"lo2":-89.0444,"dy":0.0017,"dx":0.0017,"nx":28,"ny":28,"refTime":"2024-08-30T09:00:00:Z","depth":0,"parameterNumber":2,"parameterNumberName":"U-component_of_WINDS"},"data":[0,0,0,0,0,0,0,0,0,0,0,0,0,0,0,0,0,0,0,0,0,0,0,0,0,0,0,0,0,0,0,0,0,0,0,0,0,0,0,0,0,0,0,0,0,0,0,0,0,0,0,0,0,0,0,0,0,0,-2.7211,-2.721,0,-2.7131,-2.713,-2.7129,-2.7028,-2.7026,-2.7025,-2.7023,-2.6936,-2.6935,-2.6934,0,0,0,0,0,0,0,0,0,0,0,0,0,-2.7276,-2.7275,-2.7211,-2.721,-2.7209,-2.7131,-2.713,-2.7128,-2.7028,-2.7026,-2.7024,-2.7023,-2.6936,-2.6935,-2.6934,0,0,0,0,0,0,0,0,0,0,0,0,0,-2.7227,-2.7275,-2.7212,-2.715,-2.7144,-2.7131,-2.7129,-2.7128,-2.7029,-2.7026,-2.7024,-2.7022,-2.6936,-2.6935,-2.6934,-2.6973,0,0,-2.693,-2.6929,0,0,0,0,0,0,0,0,-2.723,-2.7224,-2.716,-2.7154,-2.7147,-2.7087,-2.712,-2.7076,-2.7029,-2.7072,-2.7023,-2.7021,-2.6988,-2.6982,-2.6972,-2.6969,-2.6966,-2.693,-2.6929,-2.6929,-2.6928,0,0,0,0,0,0,0,-2.7233,-2.7227,-2.7179,-2.7159,-2.7151,-2.7125,-2.7116,-2.7111,-2.7044,-2.7068,-2.7061,-2.7053,-2.6984,-2.6973,-2.6969,-2.6964,-2.693,-2.6929,-2.6928,-2.6927,-2.699,-2.6992,0,0,0,0,0,0,-2.7246,-2.7231,-2.7182,-2.7177,-2.7184,-2.7126,-2.7115,-2.7109,-2.7044,-2.7032,-2.7055,-2.7048,-2.6977,-2.6971,-2.6966,-2.7007,-2.6929,-2.6927,-2.6927,-2.6987,-2.699,-2.6993,0,0,0,0,0,0,-2.7248,-2.7243,-2.7185,-2.7202,-2.7192,-2.7128,-2.7121,-2.7108,-2.7098,-2.7034,-2.7021,-2.7057,-2.6975,-2.6967,-2.6973,-2.7003,-2.6927,-2.6926,-2.6985,-2.6988,-2.6992,-2.7091,0,0,0,0,0,0,-2.725,-2.7244,-2.7259,-2.7203,-2.7192,-2.7195,-2.7123,-2.7108,-2.7097,-2.7087,-2.7032,-2.7021,-2.6972,-2.6975,-2.6971,-2.6999,-2.6925,-2.6982,-2.6986,-2.6991,-2.7084,-2.7097,-2.7108,0,0,0,0,0,-2.7253,-2.7289,-2.726,-2.7255,-2.721,-2.7197,-2.719,-2.7135,-2.7099,-2.7113,-2.7073,-2.7023,-2.7001,-2.6976,-2.6971,-2.7,-2.6979,-2.6985,-2.699,-2.7079,-2.7095,-2.7108,0,0,0,0,0,0,-2.7349,-2.7281,-2.7248,-2.7267,-2.7239,-2.718,-2.7195,-2.7153,-2.7132,-2.7124,-2.7055,-2.7044,-2.7057,-2.7029,-2.7003,-2.7034,-2.6983,-2.6987,-2.7052,-2.7066,-2.7078,-2.7083,-2.6924,0,0,0,0,0,-2.7373,-2.7369,-2.7309,-2.7332,-2.7319,-2.7261,-2.7253,-2.7213,-2.718,-2.7166,-2.7126,-2.7094,-2.708,-2.7072,-2.7055,-2.7081,-2.7067,-2.7098,-2.711,-2.712,-2.7124,-2.7135,-2.7147,-2.7011,-2.7011,-2.7011,0,0,-2.742,-2.7383,-2.7384,-2.735,-2.7323,-2.732,-2.7251,-2.725,-2.7246,-2.7166,-2.7168,-2.7138,-2.7098,-2.7114,-2.7118,-2.709,-2.7159,-2.7127,-2.7136,-2.7134,-2.7142,-2.7155,-2.7166,-2.7015,-2.7014,-2.7013,0,0,-2.7506,-2.7478,-2.7494,-2.7469,-2.743,-2.7391,-2.7395,-2.7343,-2.732,-2.7322,-2.7262,-2.7256,-2.7233,-2.7207,-2.7191,-2.727,-2.7223,-2.7266,-2.7328,-2.7339,-2.735,-2.7359,-2.7385,-2.7396,-2.7271,-2.7271,-2.7272,0,-2.757,-2.7563,-2.7507,-2.751,-2.7496,-2.7426,-2.7441,-2.7419,-2.7376,-2.7368,-2.7338,-2.7309,-2.7277,-2.7285,-2.7305,-2.7295,-2.7296,-2.7271,-2.7353,-2.7362,-2.7369,-2.7394,-2.7404,-2.7277,-2.7276,-2.7276,-2.7275,0,-2.7644,-2.764,-2.7658,-2.762,-2.7609,-2.7618,-2.7561,-2.7557,-2.7519,-2.7483,-2.7485,-2.7446,-2.742,-2.7419,-2.7381,-2.7422,-2.7406,-2.7366,-2.7312,-2.7389,-2.741,-2.7419,-2.7285,-2.7283,-2.7281,-2.728,0,0,-2.7784,-2.7717,-2.7724,-2.7706,-2.7659,-2.7655,-2.7661,-2.7638,-2.7634,-2.7608,-2.761,-2.7594,-2.7557,-2.7539,-2.7497,-2.7508,-2.7571,-2.7466,-2.7464,-2.7485,-2.7612,-2.7642,-2.7654,-2.7541,-2.7543,-2.7544,-2.7615,0,-2.7859,-2.7867,-2.7817,-2.7837,-2.7833,-2.7767,-2.7772,-2.7744,-2.7711,-2.7701,-2.7664,-2.7653,-2.7606,-2.7595,-2.7602,-2.7562,-2.7595,-2.7557,-2.754,-2.7541,-2.755,-2.7665,-2.7695,-2.7765,-2.7624,-2.7625,-2.7626,0,-2.7947,-2.7928,-2.7948,-2.7901,-2.7897,-2.7903,-2.7878,-2.787,-2.7836,-2.7811,-2.7793,-2.7747,-2.7748,-2.7699,-2.7699,-2.7674,-2.7665,-2.7645,-2.7646,-2.764,-2.7586,-2.7661,-2.7785,-2.7795,-2.7639,-2.7638,-2.7637,0,-2.8046,-2.8025,-2.8034,-2.8021,-2.7967,-2.7972,-2.7949,-2.7913,-2.7903,-2.7881,-2.7873,-2.7851,-2.7838,-2.7822,-2.777,-2.774,-2.7776,-2.7723,-2.7754,-2.7755,-2.7762,-2.7762,-2.7885,-2.7761,-2.776,-2.776,-2.776,0,-2.8134,-2.8149,-2.8078,-2.8084,-2.8098,-2.8041,-2.8056,-2.8027,-2.7996,-2.7993,-2.7936,-2.7934,-2.7868,-2.7859,-2.7819,-2.7824,-2.782,-2.7798,-2.7787,-2.7802,-2.7805,-2.7793,-2.7787,-2.7763,-2.7762,-2.7762,-2.7761,0,-2.8246,-2.8199,-2.8205,-2.8154,-2.8141,-2.8154,-2.8109,-2.8112,-2.8077,-2.8075,-2.8071,-2.8014,-2.8001,-2.7949,-2.7923,-2.7896,-2.7914,-2.7893,-2.7926,-2.7918,-2.7951,-2.7948,-2.807,-2.8082,-2.7952,-2.7953,-2.7954,0,-2.8304,-2.8314,-2.8265,-2.826,-2.824,-2.8233,-2.8223,-2.8167,-2.8158,-2.8121,-2.8128,-2.8111,-2.8094,-2.8076,-2.8031,-2.8011,-2.7988,-2.8032,-2.7984,-2.8,-2.7987,-2.7986,-2.7986,-2.8042,-2.8043,-2.8045,-2.8046,0,-2.8412,-2.8389,-2.8377,-2.8357,-2.8347,-2.8328,-2.8305,-2.8305,-2.8243,-2.8236,-2.8222,-2.821,-2.8184,-2.8167,-2.814,-2.8114,-2.807,-2.8062,-2.8068,-2.8082,-2.81,-2.8089,-2.7952,-2.8059,-2.8057,-2.8057,-2.8056,-2.8055,-2.8497,-2.8503,-2.847,-2.8458,-2.8436,-2.8417,-2.8417,-2.8383,-2.8371,-2.8347,-2.8315,-2.8306,-2.8271,-2.823,-2.8209,-2.82,-2.8175,-2.8184,-2.8186,-2.8188,-2.8195,-2.8104,-2.8195,-2.8195,-2.8194,-2.8194,-2.8194,0,-2.8601,-2.8577,-2.8567,-2.8539,-2.853,-2.8491,-2.8465,-2.8459,-2.8452,-2.8425,-2.8411,-2.8395,-2.8379,-2.8335,-2.8314,-2.8315,-2.8294,-2.8311,-2.8309,-2.8304,-2.8219,-2.8216,-2.8328,-2.8328,-2.8328,-2.8328,-2.8328,-2.8328,-2.8654,-2.8661,-2.8635,-2.8631,-2.8606,-2.8598,-2.8586,-2.8568,-2.8546,-2.8532,-2.8519,-2.8491,-2.8457,-2.8433,-2.8416,-2.8403,-2.8397,-2.8421,-2.8402,-2.8323,-2.831,-2.8297,-2.8294,-2.8421,-2.8421,-2.8486,-2.8487,-2.8487]},{"header":{"parameterUnit":"m.s-1","parameterCategory":1,"la1":30.2991,"la2":30.254,"lo1":-89.0895,"lo2":-89.0444,"dy":0.0017,"dx":0.0017,"nx":28,"ny":28,"refTime":"2024-08-30T09:00:00:Z","depth":0,"parameterNumber":3,"parameterNumberName":"V-component_of_WINDS"},"data":[0,0,0,0,0,0,0,0,0,0,0,0,0,0,0,0,0,0,0,0,0,0,0,0,0,0,0,0,0,0,0,0,0,0,0,0,0,0,0,0,0,0,0,0,0,0,0,0,0,0,0,0,0,0,0,0,0,0,2.0156,2.0156,0,2.0115,2.0115,2.0114,2.0037,2.0036,2.0034,2.0033,1.9993,1.9993,1.9994,0,0,0,0,0,0,0,0,0,0,0,0,0,2.0169,2.0169,2.0156,2.0156,2.0155,2.0115,2.0115,2.0114,2.0037,2.0036,2.0034,2.0032,1.9993,1.9993,1.9994,0,0,0,0,0,0,0,0,0,0,0,0,0,2.0149,2.0169,2.0156,2.0112,2.0108,2.0115,2.0115,2.0114,2.0038,2.0036,2.0033,2.0031,1.9993,1.9993,1.9994,2.0042,0,0,1.9995,1.9996,0,0,0,0,0,0,0,0,2.015,2.0149,2.0119,2.0115,2.011,2.0079,2.0104,2.009,2.0038,2.0064,2.0033,2.003,2.0024,2.0021,2.0019,2.004,2.0039,1.9995,1.9996,1.9996,1.9996,0,0,0,0,0,0,0,2.0152,2.015,2.014,2.0119,2.0113,2.0094,2.0089,2.0101,2.0057,2.0062,2.0056,2.0052,2.0021,2.0019,2.0017,2.0038,1.9995,1.9996,1.9996,1.9996,2.0095,2.0097,0,0,0,0,0,0,2.0159,2.0152,2.0141,2.0139,2.0125,2.0096,2.009,2.0091,2.0057,2.0049,2.0054,2.0049,2.0019,2.0017,2.0016,2.0069,1.9996,1.9997,1.9997,2.0093,2.0095,2.0098,0,0,0,0,0,0,2.016,2.0159,2.0143,2.0144,2.014,2.0098,2.01,2.0092,2.0089,2.0051,2.0043,2.006,2.0017,2.0015,2.0035,2.0066,1.9997,1.9997,2.009,2.0093,2.0097,2.0176,0,0,0,0,0,0,2.0161,2.016,2.0178,2.0145,2.014,2.0164,2.0102,2.0093,2.009,2.0083,2.0054,2.0047,2.0015,2.0035,2.0036,2.0066,1.9998,2.0087,2.0091,2.0095,2.0171,2.0182,2.0192,0,0,0,0,0,2.0161,2.0203,2.0179,2.0179,2.0162,2.0166,2.0163,2.0124,2.0093,2.0111,2.0085,2.0048,2.0063,2.0038,2.0038,2.0069,2.0085,2.009,2.0095,2.0166,2.018,2.0192,0,0,0,0,0,0,2.0243,2.0198,2.0171,2.0203,2.0189,2.0153,2.0174,2.0141,2.0135,2.0129,2.0081,2.0075,2.0102,2.0087,2.0061,2.0112,2.0068,2.0073,2.0122,2.0134,2.0145,2.0148,1.9998,0,0,0,0,0,2.0264,2.027,2.0231,2.0263,2.0257,2.0217,2.0217,2.0188,2.0171,2.0165,2.0142,2.0128,2.0128,2.013,2.0129,2.0168,2.016,2.0189,2.0199,2.0208,2.0214,2.0232,2.0244,2.0115,2.0115,2.0115,0,0,2.0309,2.0285,2.0293,2.0279,2.0264,2.0272,2.0212,2.0224,2.0229,2.0167,2.0185,2.0167,2.0148,2.0177,2.0189,2.0166,2.0247,2.0215,2.0222,2.0223,2.0238,2.0251,2.0262,2.0118,2.0118,2.0117,0,0,2.0395,2.0378,2.0402,2.0387,2.0365,2.0338,2.0344,2.0312,2.0297,2.0314,2.0267,2.0273,2.0276,2.0264,2.0258,2.0336,2.0301,2.0337,2.0392,2.041,2.0421,2.0429,2.0457,2.0467,2.0342,2.0342,2.0343,0,2.0454,2.0463,2.0419,2.0432,2.0427,2.0369,2.0393,2.0382,2.0361,2.0359,2.0333,2.0334,2.0317,2.0342,2.0361,2.0358,2.0363,2.0341,2.0422,2.0431,2.0438,2.0464,2.0475,2.0347,2.0346,2.0346,2.0346,0,2.0536,2.0543,2.0565,2.0545,2.0542,2.0561,2.0519,2.0522,2.0492,2.0467,2.0484,2.0461,2.0454,2.0457,2.043,2.0478,2.0464,2.0431,2.0385,2.0456,2.0479,2.0489,2.0353,2.0352,2.035,2.0349,0,0,2.0675,2.0627,2.0636,2.0625,2.0595,2.06,2.0615,2.0607,2.061,2.0596,2.0608,2.061,2.0579,2.0572,2.0542,2.0558,2.062,2.0522,2.0521,2.0541,2.0672,2.0698,2.071,2.0596,2.0598,2.0599,2.0673,0,2.0754,2.0777,2.0737,2.077,2.0775,2.0719,2.0732,2.0715,2.0692,2.0693,2.0667,2.0669,2.0627,2.0623,2.0636,2.061,2.0646,2.0604,2.0607,2.0608,2.0615,2.0722,2.075,2.0822,2.0682,2.0684,2.0685,0,2.0851,2.0841,2.0874,2.084,2.084,2.0853,2.0841,2.0842,2.0822,2.0803,2.0795,2.0758,2.077,2.0725,2.0741,2.0714,2.0712,2.0699,2.0701,2.0701,2.0652,2.0726,2.0843,2.0855,2.0699,2.0698,2.0697,0,2.0949,2.0943,2.0962,2.0954,2.0915,2.0925,2.0909,2.0886,2.0882,2.0872,2.0869,2.086,2.0856,2.085,2.0812,2.0783,2.0833,2.0785,2.0819,2.082,2.0833,2.0833,2.0953,2.0831,2.0831,2.0831,2.083,0,2.1042,2.1065,2.1005,2.1017,2.1039,2.0991,2.1016,2.0994,2.0973,2.098,2.0931,2.0938,2.0887,2.0888,2.0859,2.0876,2.0875,2.0861,2.0853,2.0866,2.0868,2.0865,2.086,2.0833,2.0833,2.0832,2.0832,0,2.1156,2.1117,2.1133,2.1094,2.1084,2.1103,2.1069,2.1078,2.105,2.1059,2.1058,2.1015,2.1014,2.0975,2.0966,2.0946,2.0977,2.0959,2.0984,2.0978,2.1015,2.1012,2.1138,2.1152,2.1021,2.1022,2.1023,0,2.122,2.1235,2.1196,2.1196,2.1183,2.1184,2.1179,2.1132,2.113,2.1105,2.1118,2.1112,2.1105,2.1106,2.1075,2.1067,2.105,2.1094,2.1049,2.1061,2.1051,2.1051,2.1052,2.1105,2.1106,2.1108,2.1109,0,2.1336,2.1315,2.131,2.1298,2.1294,2.1283,2.1268,2.1271,2.1219,2.1219,2.1216,2.1211,2.1201,2.1196,2.1182,2.1166,2.1129,2.1123,2.113,2.1145,2.1159,2.1152,2.1011,2.1121,2.112,2.1119,2.1118,2.1118,2.1426,2.1437,2.1411,2.1407,2.139,2.1378,2.1384,2.1355,2.1352,2.1339,2.1311,2.1313,2.129,2.1267,2.1254,2.1255,2.1233,2.1244,2.1247,2.125,2.1258,2.1157,2.1252,2.1252,2.1251,2.1251,2.1251,0,2.1541,2.152,2.1517,2.1497,2.1494,2.1456,2.1438,2.1438,2.144,2.142,2.1414,2.141,2.1405,2.1372,2.1362,2.137,2.1352,2.1369,2.1369,2.1365,2.1278,2.1273,2.1383,2.1383,2.1383,2.1383,2.1383,2.1383,2.16,2.1616,2.1591,2.1598,2.1577,2.1578,2.157,2.1558,2.1542,2.154,2.1534,2.1512,2.1487,2.1475,2.1468,2.1458,2.1457,2.148,2.1465,2.1384,2.1372,2.136,2.1354,2.148,2.148,2.1552,2.1553,2.1553]}]]